TimeEDT,TemperatureF,Dew PointF,Humidity,Sea Level PressureIn,VisibilityMPH,Wind Direction,Wind SpeedMPH,Gust SpeedMPH,PrecipitationIn,Events,Conditions,WindDirDegrees,DateUTC
12:53 AM,75.9,63.0,64,30.12,10.0,ESE,16.1,-,N/A,,Clear,110,2012-05-12 04:53:00
1:53 AM,75.0,64.0,69,30.11,10.0,ESE,18.4,-,N/A,,Clear,110,2012-05-12 05:53:00
2:53 AM,75.0,64.9,71,30.10,10.0,ESE,15.0,-,N/A,,Clear,110,2012-05-12 06:53:00
3:53 AM,75.0,64.9,71,30.09,10.0,ESE,18.4,-,N/A,,Clear,120,2012-05-12 07:53:00
4:53 AM,73.9,64.9,73,30.09,10.0,ESE,15.0,-,N/A,,Clear,110,2012-05-12 08:53:00
5:53 AM,73.9,66.0,76,30.10,10.0,ESE,17.3,-,N/A,,Clear,110,2012-05-12 09:53:00
6:53 AM,73.0,66.9,81,30.11,10.0,ESE,18.4,-,N/A,,Clear,110,2012-05-12 10:53:00
7:53 AM,73.9,66.9,79,30.14,10.0,ESE,12.7,-,N/A,,Clear,110,2012-05-12 11:53:00
8:53 AM,75.9,66.9,74,30.16,10.0,ESE,11.5,-,N/A,,Clear,120,2012-05-12 12:53:00
9:53 AM,79.0,68.0,69,30.16,10.0,SE,17.3,-,N/A,,Clear,130,2012-05-12 13:53:00
10:53 AM,82.0,68.0,62,30.16,10.0,SE,13.8,-,N/A,,Clear,130,2012-05-12 14:53:00
11:53 AM,84.9,66.0,53,30.16,10.0,ESE,10.4,-,N/A,,Clear,120,2012-05-12 15:53:00
12:53 PM,87.1,66.9,51,30.15,10.0,ESE,6.9,-,N/A,,Clear,110,2012-05-12 16:53:00
1:53 PM,86.0,68.0,55,30.12,10.0,East,11.5,-,N/A,,Clear,80,2012-05-12 17:53:00
2:53 PM,87.1,69.1,55,30.10,10.0,East,10.4,-,N/A,,Clear,80,2012-05-12 18:53:00
3:53 PM,88.0,68.0,51,30.08,10.0,ENE,5.8,-,N/A,,Clear,70,2012-05-12 19:53:00
4:53 PM,88.0,69.1,53,30.06,10.0,East,11.5,-,N/A,,Clear,90,2012-05-12 20:53:00
5:53 PM,86.0,68.0,55,30.06,10.0,East,11.5,-,N/A,,Clear,90,2012-05-12 21:53:00
6:53 PM,84.9,68.0,57,30.07,10.0,ESE,15.0,-,N/A,,Clear,110,2012-05-12 22:53:00
7:53 PM,84.0,66.0,55,30.08,10.0,East,16.1,-,N/A,,Scattered Clouds,100,2012-05-12 23:53:00
8:53 PM,82.0,64.9,56,30.10,10.0,ESE,18.4,-,N/A,,Scattered Clouds,110,2012-05-13 00:53:00
9:53 PM,80.1,66.0,62,30.12,10.0,ESE,19.6,-,N/A,,Partly Cloudy,120,2012-05-13 01:53:00
10:53 PM,78.1,64.9,64,30.13,10.0,ESE,21.9,-,N/A,,Clear,120,2012-05-13 02:53:00
11:53 PM,75.9,64.9,69,30.13,10.0,ESE,18.4,-,N/A,,Clear,120,2012-05-13 03:53:00